TimeCST,TemperatureF,Dew PointF,Humidity,Sea Level PressureIn,VisibilityMPH,Wind Direction,Wind SpeedMPH,Gust SpeedMPH,PrecipitationIn,Events,Conditions,WindDirDegrees,DateUTC
12:11 AM,19.4,17.6,93,30.33,5.0,WNW,12.7,-,0.00,Snow,Light Snow,300,2013-12-10 06:11:00
12:21 AM,19.4,15.8,86,30.33,5.0,WNW,10.4,-,0.00,Snow,Light Snow,300,2013-12-10 06:21:00
12:57 AM,19.0,16.0,88,30.39,5.0,WNW,9.2,-,0.00,Snow,Light Snow,290,2013-12-10 06:57:00
1:57 AM,18.0,15.1,88,30.39,6.0,NW,5.8,-,0.00,Snow,Light Snow,310,2013-12-10 07:57:00
2:08 AM,17.6,14.0,86,30.33,7.0,NW,5.8,-,0.00,Snow,Light Snow,310,2013-12-10 08:08:00
2:19 AM,15.8,14.0,93,30.34,7.0,WNW,4.6,-,0.00,Snow,Light Snow,300,2013-12-10 08:19:00
2:57 AM,14.0,12.0,92,30.41,7.0,WNW,3.5,-,0.00,Snow,Light Snow,300,2013-12-10 08:57:00
3:26 AM,12.2,10.4,92,30.36,7.0,West,4.6,-,0.00,,Partly Cloudy,280,2013-12-10 09:26:00
3:35 AM,12.2,10.4,92,30.36,7.0,West,3.5,-,0.00,,Mostly Cloudy,270,2013-12-10 09:35:00
3:57 AM,12.9,10.0,88,30.41,7.0,West,5.8,-,0.00,,Overcast,280,2013-12-10 09:57:00
4:21 AM,12.2,10.4,92,30.36,7.0,West,5.8,-,N/A,,Overcast,280,2013-12-10 10:21:00
4:57 AM,14.0,12.0,92,30.41,9.0,WNW,6.9,-,N/A,,Overcast,290,2013-12-10 10:57:00
5:57 AM,12.9,10.0,88,30.41,6.0,SSW,4.6,-,0.00,Snow,Light Snow,210,2013-12-10 11:57:00
6:03 AM,12.2,10.4,92,30.35,5.0,SSW,4.6,-,0.00,,Overcast,210,2013-12-10 12:03:00
6:46 AM,10.4,8.6,92,30.36,5.0,Calm,Calm,-,0.00,Snow,Light Snow,0,2013-12-10 12:46:00
6:57 AM,10.9,9.0,92,30.44,6.0,SW,3.5,-,0.00,Snow,Light Snow,220,2013-12-10 12:57:00
7:00 AM,10.4,8.6,92,30.37,5.0,SSW,3.5,-,0.00,Snow,Light Snow,210,2013-12-10 13:00:00
7:46 AM,10.4,8.6,92,30.37,4.0,SSW,3.5,-,0.00,,Scattered Clouds,210,2013-12-10 13:46:00
7:57 AM,10.9,8.1,88,30.44,3.0,SSW,5.8,-,0.00,Snow,Light Snow,210,2013-12-10 13:57:00
8:05 AM,10.4,8.6,92,30.38,2.5,SSW,6.9,-,0.00,Snow,Light Snow,210,2013-12-10 14:05:00
8:15 AM,12.2,10.4,92,30.38,3.0,SSW,5.8,-,0.00,Snow,Light Snow,210,2013-12-10 14:15:00
8:57 AM,19.0,15.1,85,30.45,5.0,North,-9999.0,-,0.00,Snow,Light Snow,0,2013-12-10 14:57:00
9:57 AM,21.9,15.1,75,30.47,10.0,WSW,5.8,-,0.00,,Clear,250,2013-12-10 15:57:00
10:57 AM,25.0,14.0,63,30.46,10.0,WSW,8.1,-,N/A,,Clear,240,2013-12-10 16:57:00
11:57 AM,27.0,12.9,56,30.44,10.0,SW,10.4,-,N/A,,Clear,230,2013-12-10 17:57:00
12:57 PM,33.1,12.0,42,30.40,10.0,SW,4.6,-,N/A,,Clear,220,2013-12-10 18:57:00
1:57 PM,33.1,14.0,46,30.36,10.0,South,5.8,-,N/A,,Clear,180,2013-12-10 19:57:00
2:57 PM,34.0,15.1,46,30.32,10.0,South,6.9,-,N/A,,Clear,180,2013-12-10 20:57:00
3:57 PM,33.1,14.0,46,30.33,10.0,SSW,4.6,-,N/A,,Clear,210,2013-12-10 21:57:00
4:57 PM,30.9,15.1,52,30.33,10.0,Calm,Calm,-,N/A,,Clear,0,2013-12-10 22:57:00
5:57 PM,25.0,14.0,63,30.33,10.0,Calm,Calm,-,N/A,,Clear,0,2013-12-10 23:57:00
6:57 PM,23.0,14.0,68,30.37,10.0,SSW,3.5,-,N/A,,Clear,210,2013-12-11 00:57:00
7:57 PM,24.1,16.0,71,30.38,10.0,SSW,9.2,-,N/A,,Clear,200,2013-12-11 01:57:00
8:57 PM,25.0,18.0,75,30.34,10.0,SSE,10.4,-,N/A,,Clear,160,2013-12-11 02:57:00
9:57 PM,25.0,17.1,72,30.31,10.0,SSE,12.7,-,N/A,,Clear,160,2013-12-11 03:57:00
10:57 PM,25.0,17.1,72,30.31,10.0,SSE,11.5,-,N/A,,Clear,160,2013-12-11 04:57:00
11:57 PM,24.1,18.0,77,30.30,10.0,SSE,9.2,-,N/A,,Clear,160,2013-12-11 05:57:00